Wind_Speed
18 19 20 20 19 19 19 19 19 17 14 11 9 5 6 8 19 25 22 20 23 22 22 21 18 19 21 9 12 8 8 17 19 19 18 14 17 15 14 13 11 7 3 6 12
20 20 21 20 19 19 21 22 19 15 12 8 8 1 6 6 3 25 19 22 22 23 24 22 16 18 7 12 5 12 11 14 13 17 20 19 17 16 16 18 16 8 3 12 24
20 21 20 20 20 20 22 20 16 12 11 7 7 2 3 7 2 12 21 22 23 23 19 19 19 14 9 8 8 12 24 19 22 23 24 25 20 15 16 14 13 19 14 8 11
21 21 20 21 20 21 22 17 15 13 12 5 5 6 7 5 3 17 20 21 20 20 18 18 13 10 9 11 14 15 21 20 17 22 22 21 21 23 20 19 20 25 25 24 12
20 20 21 21 20 22 22 17 15 10 9 10 5 4 3 7 7 17 18 21 21 22 17 11 12 11 9 15 18 18 16 20 25 24 23 22 20 22 23 22 20 24 24 23 21
19 19 20 20 19 22 20 15 11 15 16 17 20 10 11 7 16 14 21 22 23 21 19 13 9 11 9 13 14 17 19 21 22 25 22 22 22 21 20 19 21 20 22 22 24
18 19 19 21 19 22 15 11 10 3 5 7 6 2 15 11 13 14 21 23 22 22 13 13 14 8 11 14 9 17 21 19 18 16 19 15 13 16 18 20 18 22 15 18 22
18 18 20 22 19 21 11 9 5 4 4 5 6 8 4 9 15 17 23 26 26 15 15 13 8 9 8 10 15 14 10 12 16 21 20 20 20 18 21 19 20 14 14 17 20
18 18 19 21 17 21 7 6 10 4 7 6 5 3 3 7 22 16 23 26 21 18 16 10 9 7 10 6 8 9 13 18 22 17 22 21 24 20 18 21 20 17 15 18 18
18 18 19 19 13 21 4 6 4 21 5 4 11 2 7 12 17 16 26 28 14 16 9 11 3 6 6 8 8 17 17 19 20 21 21 21 23 21 21 21 22 20 17 17 19
19 19 21 19 13 20 8 7 4 2 15 7 6 5 10 17 10 20 27 21 13 10 12 8 6 6 10 10 14 15 17 19 22 20 23 21 22 22 20 18 18 20 20 19 21
19 20 21 15 14 18 12 6 5 2 3 4 3 5 12 16 6 15 25 11 10 10 16 9 4 8 13 13 14 17 16 17 21 18 19 22 25 22 20 22 22 19 22 20 20
19 19 21 14 10 11 15 11 4 3 3 3 2 3 7 12 5 13 17 10 11 10 12 9 10 14 15 12 12 13 18 18 23 27 20 21 24 14 21 23 21 21 20 21 21
17 17 19 12 5 15 7 12 3 3 2 4 6 4 9 10 1 11 15 7 6 9 11 7 12 16 12 14 15 15 18 26 27 21 13 9 15 13 12 12 13 12 15 19 20
13 16 14 14 5 6 10 7 3 3 2 3 3 4 17 4 10 6 20 5 12 12 6 6 20 11 11 12 15 20 23 30 31 21 12 20 3 5 12 15 18 20 22 22 18
10 14 15 9 5 11 7 2 3 2 4 3 4 11 16 9 11 10 7 10 4 10 8 21 14 2 4 11 17 17 21 27 12 1 1 3 2 4 8 15 19 21 22 23 22
6 10 13 11 8 13 4 3 1 5 7 9 9 12 15 8 9 11 11 6 8 9 17 12 11 4 4 13 10 17 19 7 6 4 5 5 11 6 12 15 20 22 25 23 23
4 6 8 11 13 7 3 2 7 3 5 8 11 17 5 10 9 11 10 6 7 7 12 9 8 5 13 4 4 7 10 5 7 7 13 22 1 4 15 14 19 22 22 20 21
3 2 4 19 11 5 3 5 3 4 5 10 14 5 6 11 8 8 9 3 4 7 9 6 6 20 16 8 7 6 12 14 6 13 9 6 2 4 26 30 30 29 24 21 21
2 2 6 15 8 4 3 5 2 3 7 7 4 5 8 11 8 11 6 2 3 6 7 5 12 7 11 5 1 4 9 6 5 5 9 8 5 6 27 26 31 30 24 23 19
1 2 12 9 5 3 4 3 2 2 5 4 5 6 5 10 12 8 3 2 3 7 11 6 4 11 12 9 8 5 5 4 5 4 5 8 4 10 25 25 30 28 22 21 18
3 0 15 14 3 3 3 2 2 3 2 3 4 2 5 8 6 5 5 1 8 7 9 3 4 6 22 5 11 15 6 4 4 6 7 5 6 17 21 24 23 26 21 19 16
2 2 9 6 3 3 2 1 1 4 4 4 4 3 5 6 6 6 6 14 15 13 3 4 3 7 7 2 2 4 12 10 11 4 3 7 11 20 20 26 23 21 22 21 17
2 2 3 5 3 2 2 4 4 3 2 2 6 6 6 9 8 9 17 11 16 12 7 6 2 7 9 16 15 3 14 16 8 3 9 6 26 22 29 29 31 27 27 19 17
4 2 0 2 4 4 0 2 5 6 4 4 3 5 7 3 15 5 17 17 15 2 9 2 4 11 19 19 1 3 13 17 11 5 4 19 18 20 27 27 26 22 21 23 26
2 1 1 2 1 3 3 0 4 3 2 5 5 9 9 6 8 14 16 13 7 5 10 6 4 14 16 7 9 1 17 17 10 4 5 19 17 22 25 23 20 28 28 26 22
3 2 1 2 3 2 2 2 2 5 4 4 6 9 9 9 15 17 15 13 11 10 6 3 6 10 5 14 11 3 9 16 12 3 10 19 23 24 27 28 22 28 26 24 26
Wind_Direction
9 6 3 0 359 358 356 349 344 339 342 348 352 340 163 127 48 40 32 3 355 348 344 344 347 340 321 247 252 268 251 255 247 252 260 280 293 309 312 288 272 238 250 306 310
7 4 1 0 0 359 354 349 345 349 351 350 358 24 199 221 314 38 8 358 352 349 346 344 340 330 310 287 249 221 237 261 263 280 296 307 314 322 327 314 313 276 312 299 301
4 2 2 3 0 356 353 356 2 5 359 2 8 56 167 198 261 15 355 352 350 349 339 339 335 330 292 269 249 251 250 270 275 285 295 297 305 336 313 297 309 331 329 224 276
3 2 3 2 359 355 355 357 356 357 6 23 61 98 144 255 40 355 350 352 349 346 346 349 339 326 322 304 321 314 310 317 320 321 322 311 308 288 291 288 317 313 310 310 312
4 4 2 1 360 355 354 358 3 22 37 57 85 55 305 57 21 351 351 351 354 349 352 348 339 347 330 322 309 297 313 317 317 313 306 305 296 299 282 295 294 302 308 313 308
4 5 1 359 359 355 357 10 32 76 73 70 58 55 66 66 336 344 348 349 351 347 334 347 338 327 290 330 313 295 298 312 312 307 306 300 295 292 280 277 286 290 291 294 296
5 3 0 358 358 356 5 16 33 152 358 10 32 37 63 34 5 359 351 346 343 333 322 333 319 317 318 299 298 307 294 290 285 294 302 317 318 292 301 300 308 277 304 314 296
4 3 1 358 359 359 5 23 41 74 1 16 18 59 92 31 2 360 353 345 343 346 326 310 322 296 273 290 282 287 299 302 304 314 311 321 300 302 301 294 293 315 303 301 302
4 0 359 355 0 360 29 54 48 350 23 36 350 317 77 332 359 342 359 340 334 327 305 318 318 289 276 302 325 324 309 311 306 318 310 303 299 301 301 298 293 285 285 288 292
3 359 358 352 357 2 24 111 138 26 313 283 2 73 42 352 338 342 353 342 342 318 350 343 293 260 4 357 319 312 312 304 296 302 296 294 292 296 287 270 276 276 273 274 276
360 358 359 353 8 10 5 273 253 141 34 66 44 66 348 351 328 3 357 341 347 356 359 321 289 12 347 323 308 296 287 287 292 294 295 290 287 283 282 280 260 261 264 263 263
356 360 358 7 27 17 41 52 47 334 76 67 21 33 353 346 332 2 2 7 344 354 355 343 49 5 321 312 308 299 307 302 295 296 296 295 284 285 276 276 273 263 256 251 254
355 358 1 11 35 17 53 36 342 326 260 100 33 357 331 328 337 10 11 349 348 337 352 312 292 331 319 317 323 325 304 305 299 301 285 279 281 273 272 258 258 264 243 253 252
358 357 5 356 12 351 52 350 352 320 239 23 5 52 331 322 263 19 6 355 339 322 334 303 341 320 325 312 347 310 306 295 293 302 297 300 290 321 348 350 355 322 248 242 241
359 3 8 36 353 34 319 338 334 277 27 359 28 319 338 24 343 11 347 348 331 326 293 282 311 306 315 327 323 299 317 304 297 282 279 285 249 8 359 356 347 337 330 325 298
358 10 24 10 39 354 334 346 295 238 356 28 18 349 348 4 344 354 346 24 5 319 308 319 296 203 276 303 312 327 317 305 293 245 319 271 331 53 15 345 336 330 321 316 310
348 6 30 17 340 335 344 264 298 56 11 348 334 340 320 3 350 345 343 36 32 342 336 328 327 62 349 329 307 341 339 333 352 10 308 309 328 62 356 5 345 330 318 309 299
332 8 20 7 340 339 303 254 56 57 19 343 333 310 314 29 341 340 349 14 39 350 306 345 325 48 330 341 312 330 349 329 313 329 302 306 271 118 17 356 344 333 316 312 304
22 1 13 348 350 360 286 46 19 7 340 327 319 341 350 2 334 353 340 44 41 0 9 313 271 323 301 13 25 323 357 305 258 263 270 258 172 198 355 352 347 335 324 320 307
22 304 31 350 336 316 39 94 56 347 332 342 322 14 333 338 345 337 353 217 359 342 3 280 298 291 325 330 317 40 336 330 330 307 311 323 330 351 357 344 336 329 321 322 311
345 277 352 354 336 55 61 73 28 346 22 340 333 319 331 337 329 329 299 61 211 320 346 302 247 291 305 333 61 356 4 339 281 295 320 335 316 6 350 337 327 322 325 325 323
301 323 354 355 48 49 56 24 344 308 306 303 277 218 281 325 294 318 314 109 316 328 331 272 288 300 300 124 126 67 5 336 310 323 299 301 275 12 335 332 325 322 330 334 334
20 2 353 18 54 74 153 125 135 335 347 349 311 359 294 312 318 310 325 315 354 334 334 310 309 306 325 306 216 60 13 354 319 262 12 312 305 326 332 331 334 330 340 349 349
53 30 41 54 93 45 339 17 343 100 299 331 287 288 321 324 317 302 303 328 337 323 354 352 290 272 282 306 303 330 10 358 333 321 307 311 316 333 338 339 340 346 347 348 355
15 52 287 27 52 89 31 228 338 8 19 289 288 322 342 305 311 292 331 330 328 280 355 59 261 295 305 298 61 91 24 355 339 3 336 321 327 336 337 335 333 342 340 357 12
93 96 314 84 183 218 170 33 355 356 258 306 325 332 320 299 295 315 320 324 297 331 336 337 281 317 308 285 195 70 22 354 339 357 301 331 336 337 331 333 333 349 356 2 357
74 71 60 158 166 273 67 29 333 326 289 307 318 316 314 321 317 293 282 277 262 287 312 310 309 322 275 316 307 81 352 354 336 7 1 357 331 329 337 339 342 353 354 352 349
Height
834 831 828 826 823 820 817 814 811 808 806 804 802 801 800 800 801 800 799 807 802 797 793 788 782 779 776 774 774 772 771 750 747 740 732 723 723 713 704 701 700 695 699 702 706
834 831 829 826 823 820 817 814 810 808 805 803 802 801 800 800 800 802 809 806 802 797 793 789 785 783 779 773 769 771 764 749 742 736 734 727 727 724 723 715 711 700 698 703 706
835 832 829 826 823 820 817 813 810 808 805 803 802 801 801 802 801 809 808 805 801 798 794 791 787 784 777 772 768 761 748 749 743 742 738 733 735 739 738 727 720 724 712 706 707
837 833 830 827 824 820 816 813 810 807 805 803 803 802 802 802 806 812 809 806 802 799 795 792 788 784 782 779 770 774 763 761 754 752 750 746 741 739 741 736 732 728 726 719 709
838 834 831 827 824 820 816 812 809 807 806 805 805 804 804 807 814 813 810 807 803 799 796 793 791 791 786 786 780 774 767 762 759 757 755 750 748 744 737 737 737 728 722 719 714
839 835 831 828 824 820 815 813 811 811 810 809 808 804 805 817 817 813 810 806 803 800 797 795 793 792 788 787 789 781 774 768 764 758 756 752 746 744 738 735 730 729 723 721 717
839 836 832 828 825 821 817 815 814 813 812 810 809 810 813 822 817 814 811 807 804 801 797 796 794 793 790 788 777 777 776 767 763 755 751 749 750 745 739 738 733 725 723 724 717
840 837 833 829 825 821 818 816 815 814 813 812 810 810 818 819 818 814 811 806 802 798 796 794 792 791 787 781 778 774 772 779 760 759 755 758 762 749 744 741 735 732 728 723 719
840 837 834 830 826 821 819 817 817 816 814 813 812 809 818 818 817 815 811 805 801 797 792 790 790 789 784 783 786 782 793 782 770 765 761 760 755 745 744 741 736 733 731 723 719
841 838 834 830 825 821 818 817 817 816 813 813 815 818 820 821 819 816 812 805 801 795 792 793 791 791 787 794 815 796 796 786 781 767 761 758 752 742 739 735 734 730 727 724 716
841 837 833 830 826 822 819 817 819 819 820 825 828 825 826 825 819 817 813 805 802 797 801 793 796 799 798 795 792 792 791 788 769 760 757 754 747 739 732 728 726 724 721 719 712
840 836 833 828 827 825 820 821 829 832 828 827 827 826 828 825 820 818 816 811 807 808 804 802 797 792 791 790 790 784 783 781 761 757 754 748 738 729 723 720 717 715 711 710 706
839 836 832 829 828 828 826 830 830 831 827 827 828 827 828 824 822 820 818 814 813 810 813 812 798 789 788 789 786 787 786 772 769 750 747 743 734 728 715 709 706 702 700 698 698
840 837 833 829 831 828 830 831 831 831 823 830 827 830 826 821 821 821 819 819 817 815 812 806 792 791 791 788 788 790 771 763 753 754 758 737 741 719 716 710 703 698 690 690 689
842 839 835 832 834 833 835 832 831 832 801 829 830 830 826 826 826 821 819 817 821 819 818 811 800 794 796 790 787 784 766 753 743 746 747 727 738 740 722 726 720 712 702 695 685
843 841 837 835 835 836 833 832 833 826 837 829 831 831 832 825 826 824 820 821 818 817 805 812 785 786 792 789 782 774 771 750 726 729 770 728 733 739 742 737 728 719 710 701 690
843 841 839 837 838 835 833 833 821 824 831 845 844 840 835 834 830 828 824 838 844 844 825 806 792 789 790 791 783 790 786 783 796 772 738 721 734 752 748 738 738 727 713 701 687
842 841 841 839 836 833 833 829 831 841 852 850 848 842 832 835 837 832 830 839 841 848 844 835 818 800 796 799 809 795 798 804 800 772 759 728 726 747 743 737 734 726 715 697 679
842 841 840 838 836 834 834 845 862 866 863 861 850 843 840 840 845 840 839 851 852 851 857 848 816 801 792 790 803 800 804 791 790 773 764 719 721 728 735 725 725 720 708 696 684
842 841 841 838 836 836 836 855 862 867 864 862 859 853 861 855 853 850 843 849 852 847 845 845 832 798 790 790 800 804 802 810 799 797 769 728 740 753 748 741 732 721 707 691 675
842 841 842 838 836 837 858 866 867 864 865 868 865 868 870 865 858 855 849 846 845 840 839 845 844 816 802 800 819 815 816 810 804 781 788 774 747 755 761 752 743 723 705 692 674
843 840 843 838 841 847 863 868 869 867 862 863 864 868 870 864 861 855 847 846 839 840 847 843 840 833 814 807 810 816 822 817 808 800 793 791 768 750 764 759 746 726 708 694 680
847 847 845 839 852 858 866 864 866 866 866 866 866 863 863 861 870 851 847 840 838 840 846 847 847 835 826 819 805 813 823 821 811 802 795 801 778 766 765 757 744 726 711 693 681
851 850 850 851 863 867 872 869 865 863 866 867 868 863 860 863 860 859 851 842 841 837 834 835 847 847 837 821 817 820 826 823 815 813 810 798 787 768 766 753 734 721 709 700 689
855 863 864 863 865 869 871 877 869 869 867 865 865 863 872 876 862 847 847 847 842 834 838 843 858 830 818 812 809 824 829 825 821 820 817 801 793 782 776 760 748 732 722 703 688
861 862 865 869 870 867 873 871 872 874 874 870 869 869 867 873 864 862 856 854 850 838 844 839 847 832 823 798 809 809 824 826 820 817 815 803 796 792 779 764 751 732 714 707 706
862 864 864 868 868 869 870 873 876 873 871 869 869 870 866 860 857 853 851 849 847 847 845 848 841 838 820 795 792 806 832 828 820 821 820 811 805 789 776 764 751 737 727 721 701